Terminal Aerodrome Forecast
Issued by NWS

Home | Current Version | Previous Version | Text Only | Print | Product List | Glossary On
Versions: 1 2 3 4 5 6 7 8 9 10 11 12 13 14 15 16 17 18 19 20 21 22 23 24 25 26 27 28 29 30
000
FTUS41 KILN 010900 AAA
TAFLCK
TAF AMD
KLCK 010914Z 0109/0206 VRB04KT P6SM VCSH SCT006 OVC040
      TEMPO 0109/0113 4SM -FZRASN BR BKN010 OVC025
     FM011400 12008KT P6SM SCT025 OVC100
     FM012100 11010KT 3SM -RA BR BKN020 OVC040=

USA.gov is the U.S. government's official web portal to all federal, state and local government web resources and services.